World > North America > United States > New York   Town of Mohawk, NY

Mohawk, New York Regional Weather

Lat: 43.01N, Lon: 75.01W
Wx Zone: NYZ038Web Search

Helpful Tip: Abbreviated, 7 Day, 14 Day Forecasts. There is a weather forecast for every taste.

Feedback
Mohawk Weather Map
UTC Time: 10/25/2020, 13:29
Your Time:

Mohawk, NY Regional Weather

Expires:202010251300;;813776
ASUS41 KGYX 251210
RWRGYX
WEATHER ROUNDUP FOR MAINE AND NEW HAMPSHIRE
NATIONAL WEATHER SERVICE GRAY ME
800 AM EDT SUN OCT 25 2020


MAZ007-012-024-CTZ003-RIZ002-NYZ038-NYZ072-251300-
SOUTHERN NEW ENGLAND AND NY
  
CITY           SKY/WX    TMP DP  RH WIND       PRES   REMARKS
BOSTON         MOCLDY    43  31  62 NW12      30.21R                  
WORCESTER      MOCLDY    39  28  64 N9        30.18R                  
NANTUCKET      CLOUDY    52  41  66 N14       30.16R                  
PROVIDENCE     PTCLDY    43  32  65 N9        30.20R                  
HARTFORD       MOCLDY    39  34  82 NW5       30.22R                  
ALBANY         PTCLDY    32  29  88 NW7       30.26R                  
NEW YORK CITY  MOCLDY    47  32  56 N13       30.22R                  
$$


SKY/WX - Weather  TMP - Temperature  DP - Dew Point  RH - Relative Humidity
WIND - Wind Direction/Speed PRES - Barometric Pressure VSB - Visibility
WCI - Wind Chill Index E13G22 Wind - East Wind 13 mph/Gusts of 22 mph